FW8502 Weather Reports


Display with metric or nautical units.
time (UTC)temp
F
wind
direction
speed
MPH
gust
MPH
rain 1hr
in
rain 24hr
in
rain mn
in
humidity
%
barometer
mb
20260504203037 86 163 5.0 12.0 0.00 0.00 0.00 56 1013.9
20260504201534 86 156 8.0 17.0 0.00 0.00 0.00 55 1013.9
20260504200038 86 98 11.0 17.0 0.00 0.00 0.00 54 1014.2
20260504194542 86 108 8.0 18.0 0.00 0.00 0.00 54 1014.3
20260504193044 87 100 9.0 18.0 0.00 0.00 0.00 54 1014.4
20260504191604 87 97 8.0 16.0 0.00 0.00 0.00 54 1014.9
20260504190037 85 111 7.0 17.0 0.00 0.00 0.00 55 1015.1
20260504184543 86 127 7.0 19.0 0.00 0.00 0.00 55 1015.2
20260504183038 86 64 9.0 20.0 0.00 0.00 0.00 55 1015.5
20260504181538 85 64 12.0 18.0 0.00 0.00 0.00 56 1015.6
20260504180037 85 130 9.0 19.0 0.00 0.00 0.00 57 1015.9
20260504174538 84 57 8.0 14.0 0.00 0.00 0.00 58 1016.0
20260504173038 84 145 10.0 15.0 0.00 0.00 0.00 55 1016.2
20260504171540 84 110 8.0 17.0 0.00 0.00 0.00 56 1016.5
20260504081542 69 96 2.0 6.0 0.00 0.01 0.00 85 1015.5
20260504044537 70 107 3.0 8.0 0.00 0.01 0.00 83 1017.4
20260504043040 70 118 4.0 9.0 0.00 0.01 0.00 83 1017.3
20260504041533 70 101 4.0 9.0 0.00 0.01 0.00 83 1017.3
20260504040035 70 107 4.0 10.0 0.00 0.01 0.00 83 1017.2
20260504034543 70 105 5.0 9.0 0.00 0.01 0.01 83 1017.4
20260504033050 70 80 3.0 6.0 0.00 0.01 0.01 83 1017.5
20260504031538 70 84 2.0 7.0 0.00 0.01 0.01 83 1017.6
20260504030040 70 142 3.0 7.0 0.00 0.01 0.01 83 1017.6
20260504024544 70 133 2.0 6.0 0.00 0.11 0.01 83 1017.6
20260504023038 70 129 1.0 8.0 0.00 0.11 0.01 83 1017.8
20260504021537 70 153 2.0 5.0 0.00 0.11 0.01 83 1017.6
20260504020037 70 142 1.0 7.0 0.00 0.11 0.01 83 1017.5
20260504014539 70 161 2.0 10.0 0.00 0.14 0.01 83 1017.4
20260504013039 71 144 4.0 8.0 0.00 0.14 0.01 83 1017.2
20260504011534 71 74 2.0 6.0 0.00 0.14 0.01 83 1017.2
20260504010035 71 101 3.0 7.0 0.00 0.14 0.01 83 1017.1
20260504004539 71 108 1.0 8.0 0.00 0.16 0.01 83 1016.8
20260504003042 71 136 3.0 7.0 0.00 0.16 0.01 83 1016.8
20260504001537 71 99 1.0 7.0 0.00 0.16 0.01 83 1016.6
20260504000047 71 113 4.0 8.0 0.00 0.16 0.01 83 1016.3
20260503234535 71 96 3.0 8.0 0.00 0.24 0.01 83 1016.3
20260503233040 71 101 5.0 8.0 0.00 0.24 0.01 82 1016.3
20260503231538 71 117 5.0 10.0 0.00 0.24 0.01 82 1016.1
20260503230035 71 124 7.0 11.0 0.00 0.24 0.01 82 1016.2
20260503224537 72 91 6.0 12.0 0.00 0.45 0.01 82 1016.1
20260503223036 72 103 6.0 12.0 0.00 0.45 0.01 81 1016.0
20260503221539 72 94 6.0 14.0 0.00 0.45 0.01 81 1016.0
20260503220032 72 135 8.0 13.0 0.00 0.45 0.01 81 1016.0
20260503214537 72 117 8.0 12.0 0.00 0.45 0.01 81 1016.0
20260503213037 72 163 5.0 12.0 0.00 0.45 0.01 81 1016.2
20260503211537 73 120 6.0 13.0 0.00 0.45 0.01 82 1016.3
20260503210035 72 84 7.0 12.0 0.00 0.45 0.01 81 1016.3
20260503204535 72 360 6.0 11.0 0.00 0.45 0.01 81 1016.3